Powrót do katalogu

STARLINK-35929

AktywnyŁącznośćVLEO
NORAD 66625·PAYLOAD·🇺🇸 United States

Wystrzelony Nov 23, 2025 z Vandenberg Space Force Base

Loading…

Następne Przeloty (najbliższe 24 godziny)

TLE

ŚwieżeSource: CelesTrak SupGP

Epoka: Sep 14, 2026, 22:49 UTC

1 66625C 25271J   26257.95118056  .00010312  00000+0  30465-3 0  2573
2 66625  53.1597 335.7159 0001243  76.0875 355.5109 15.34386999    19

Śledź STARLINK-35929 w czasie rzeczywistym z AllMySat

Download on the App Store